Terug naar catalogus

BEIDOU 10

ActiefNavigatieMEO
NORAD 37948·PAYLOAD·🇨🇳 China

Gelanceerd Dec 1, 2011 vanaf Xichang Satellite Launch Center

Loading…

Volgende Passages (komende 24 uur)

TLE

VersSource: Space-Track

Epoch: Sep 10, 2026, 19:05 UTC

1 37948U 11073A   26253.79533384 -.00000160  00000-0  00000-0 0  9991
2 37948  47.5267 270.4734 0116652 224.1508 237.2700  1.00279182 53991

Volg BEIDOU 10 in realtime met AllMySat

Download on the App Store